EW0822 Weather Reports


time (UTC)temp
C
wind
direction
speed
KPH
gust
KPH
rain 1hr
cm
rain 24hr
cm
rain mn
cm
humidity
%
barometer
mb
20260502163048 23 208 0.0 0.0 0.00 0.00 0.00 55 1014.1
20260502161537 23 211 0.0 0.0 0.00 0.00 0.00 57 1014.2
20260502151544 22 242 0.0 0.0 0.00 0.00 0.00 56 1015.1
20260502123022 26 65 0.0 9.7 0.00 0.00 0.00 38 1016.6
20260502121509 26 46 0.0 4.8 0.00 0.00 0.00 38 1016.7
20260502114504 26 100 0.0 0.0 0.00 0.00 0.00 38 1017.3
20260502113105 26 196 0.0 0.0 0.00 0.00 0.00 38 1017.4
20260502111602 25 128 0.0 3.2 0.00 0.00 0.00 39 1017.7
20260502110056 25 65 1.6 9.7 0.00 0.00 0.00 38 1017.8
20260502104552 25 32 0.0 3.2 0.00 0.00 0.00 38 1018.1
20260502103101 25 94 0.0 8.0 0.00 0.00 0.00 40 1018.3
20260502101557 24 41 0.0 9.7 0.00 0.00 0.00 42 1018.5
20260502100107 23 45 0.0 1.6 0.00 0.00 0.00 42 1018.6
20260502091532 22 71 0.0 0.0 0.00 0.00 0.00 41 1019.2
20260502071502 17 72 0.0 0.0 0.00 0.00 0.00 51 1019.6
20260502070001 17 73 0.0 3.2 0.00 0.00 0.00 50 1019.6
20260502064612 16 35 0.0 9.7 0.00 0.00 0.00 51 1019.5
20260502063107 16 55 0.0 6.4 0.00 0.00 0.00 51 1019.6
20260502061613 16 64 0.0 8.0 0.00 0.00 0.00 51 1019.5
20260502060053 16 55 0.0 4.8 0.00 0.00 0.00 50 1019.7
20260502054549 15 59 0.0 6.4 0.00 0.00 0.00 52 1019.8
20260502053047 15 88 0.0 8.0 0.00 0.00 0.00 53 1019.8
20260502051541 14 43 0.0 6.4 0.00 0.00 0.00 55 1019.5
20260502050035 13 51 0.0 9.7 0.00 0.00 0.00 56 1019.5
20260502044530 13 56 0.0 4.8 0.00 0.00 0.00 57 1019.6
20260502043030 13 49 0.0 9.7 0.00 0.00 0.00 57 1019.5
20260502041531 13 53 0.0 1.6 0.00 0.00 0.00 57 1019.6
20260502040025 13 51 0.0 6.4 0.00 0.00 0.00 57 1019.6
20260502034524 13 51 0.0 6.4 0.00 0.00 0.00 57 1019.7
20260502033026 13 42 0.0 1.6 0.00 0.00 0.00 58 1019.8
20260502031522 13 50 0.0 0.0 0.00 0.00 0.00 57 1019.9
20260502030021 13 55 0.0 0.0 0.00 0.00 0.00 56 1020.0
20260502024521 13 54 0.0 8.0 0.00 0.00 0.00 55 1020.0
20260502023119 13 40 0.0 3.2 0.00 0.00 0.00 56 1020.0
20260502021518 13 57 0.0 0.0 0.00 0.00 0.00 55 1020.1
20260502020017 13 61 0.0 0.0 0.00 0.00 0.00 55 1020.1
20260502014515 13 43 0.0 3.2 0.00 0.00 0.00 55 1020.2
20260502013014 13 34 0.0 1.6 0.00 0.00 0.00 56 1020.4
20260502011513 13 53 0.0 3.2 0.00 0.00 0.00 55 1020.5
20260502010011 13 55 0.0 1.6 0.00 0.00 0.00 56 1020.6
20260502004509 13 47 0.0 0.0 0.00 0.00 0.00 58 1020.8
20260502003007 12 51 0.0 0.0 0.00 0.00 0.00 59 1020.9
20260502001506 12 51 0.0 0.0 0.00 0.00 0.00 59 1021.0
20260502000004 13 51 0.0 0.0 0.00 0.00 0.00 59 1021.2
20260501234502 13 51 0.0 0.0 0.00 0.00 0.00 58 1021.3
20260501233059 13 51 0.0 0.0 0.00 0.00 0.00 57 1021.4
20260501231601 13 51 0.0 0.0 0.00 0.00 0.00 55 1021.6
20260501230100 14 51 0.0 0.0 0.00 0.00 0.00 54 1021.5
20260501224555 14 50 0.0 0.0 0.00 0.00 0.00 54 1021.5
20260501223103 14 53 0.0 0.0 0.00 0.00 0.00 54 1021.6
20260501221552 13 54 0.0 0.0 0.00 0.00 0.00 56 1021.6
20260501220054 13 54 0.0 0.0 0.00 0.00 0.00 57 1021.7
20260501214557 13 54 0.0 0.0 0.00 0.00 0.00 58 1021.7
20260501213053 13 53 0.0 0.0 0.00 0.00 0.00 59 1021.7
20260501211558 13 53 0.0 0.0 0.00 0.00 0.00 58 1021.7
20260501210050 14 53 0.0 0.0 0.00 0.00 0.00 56 1021.7
20260501204616 15 53 0.0 0.0 0.00 0.00 0.00 53 1021.7
20260501203045 15 53 0.0 0.0 0.00 0.00 0.00 50 1021.8
20260501201545 16 53 0.0 0.0 0.00 0.00 0.00 48 1021.8
20260501200045 17 53 0.0 0.0 0.00 0.00 0.00 47 1021.8
20260501194544 17 53 0.0 0.0 0.00 0.00 0.00 45 1021.7
20260501193044 18 53 0.0 0.0 0.00 0.00 0.00 41 1021.7
20260501191543 19 53 0.0 0.0 0.00 0.00 0.00 39 1021.7
20260501190041 20 55 0.0 0.0 0.00 0.00 0.00 36 1021.7
20260501184541 21 62 0.0 0.0 0.00 0.00 0.00 34 1021.7
20260501183043 21 62 0.0 0.0 0.00 0.00 0.00 33 1021.7
20260501181547 22 67 0.0 1.6 0.00 0.00 0.00 31 1021.6
20260501180040 22 46 0.0 6.4 0.00 0.00 0.00 31 1021.5
20260501174542 22 13 0.0 8.0 0.00 0.00 0.00 29 1021.5